Tracking 18980 objects as of 21-Feb-2018
HD Live streaming from Space Station
objects crossing your sky now

COSMOS 2214

Track COSMOS 2214 now!
10-day predictions
COSMOS 2214 is classified as:


NORAD ID: 22185
Int'l Code: 1992-068D
Perigee: 1,417.2 km
Apogee: 1,430.4 km
Inclination: 82.6 °
Period: 114.1 minutes
Semi major axis: 7794 km
RCS: 1.1573 m2 (large)
Launch date: October 20, 1992
Source: Commonwealth of Independent States (former USSR) (CIS)
Launch site: PLESETSK MISSILE AND SPACE COMPLEX (PKMTR)
aabbcc
Your satellite tracking list
Your tracking list is empty




NASA's NSSDC Master Catalog

Two Line Element Set (TLE):
1 22185U 92068D   18051.74816042 +.00000025 +00000-0 +80371-4 0  9990
2 22185 082.5925 126.3441 0008442 179.9144 299.3018 12.61518775166520
Source of the keplerian elements: AFSPC